GW0019 Weather Reports


time (UTC)temp
C
wind
direction
speed
KPH
gust
KPH
rain 1hr
cm
rain 24hr
cm
rain mn
cm
humidity
%
barometer
mb
20260901065556 25 203 3.2 4.8 0.00 0.00 0.00 75 1020.2
20260901065051 25 165 1.6 1.6 0.00 0.00 0.00 75 1020.3
20260901064549 23 200 1.6 3.2 0.00 0.00 0.00 74 1020.2
20260901064045 23 249 0.0 0.0 0.00 0.00 0.00 74 1020.5
20260901063541 23 203 0.0 0.0 0.00 0.00 0.00 74 1020.5
20260901063037 23 203 0.0 0.0 0.00 0.00 0.00 74 1020.4
20260901062533 23 203 0.0 0.0 0.00 0.00 0.00 74 1020.6
20260901062028 24 195 0.0 0.0 0.00 0.00 0.00 74 1020.6
20260901061525 23 188 0.0 0.0 0.00 0.00 0.00 74 1020.7
20260901061024 23 188 0.0 0.0 0.00 0.00 0.00 74 1020.7
20260901060519 -17 0.0 0.0 0.00 0.00 0.00 1020.7
20260901060014 -17 0.0 0.0 0.00 0.00 0.00 1020.5
20260901055510 26 160 0.0 1.6 0.00 0.00 0.00 75 1020.7
20260901055007 26 160 0.0 1.6 0.00 0.00 0.00 75 1020.4
20260901054504 26 160 0.0 1.6 0.00 0.00 0.00 75 1020.8
20260901053959 26 160 0.0 1.6 0.00 0.00 0.00 75 1020.8
20260901053454 26 160 0.0 1.6 0.00 0.00 0.00 75 1020.5
20260901052950 26 160 0.0 1.6 0.00 0.00 0.00 75 1020.4
20260901052445 26 160 0.0 1.6 0.00 0.00 0.00 75 1020.5
20260901051944 26 160 0.0 1.6 0.00 0.00 0.00 75 1020.4
20260901051440 26 160 0.0 1.6 0.00 0.00 0.00 75 1020.5
20260901050939 26 160 0.0 1.6 0.00 0.00 0.00 75 1020.7
20260901050435 26 160 0.0 1.6 0.00 0.00 0.00 75 1020.5
20260901045935 26 160 0.0 1.6 0.00 0.00 0.00 75 1020.4
20260901045430 27 139 3.2 3.2 0.00 0.00 0.00 75 1020.4
20260901044925 27 139 3.2 3.2 0.00 0.00 0.00 75 1020.5
20260901044421 27 139 3.2 3.2 0.00 0.00 0.00 75 1020.5
20260901043917 27 139 3.2 3.2 0.00 0.00 0.00 75 1020.6
20260901043413 27 161 3.2 3.2 0.00 0.00 0.00 75 1020.4
20260901042912 26 220 3.2 3.2 0.00 0.00 0.00 75 1020.6
20260901042407 26 220 3.2 3.2 0.00 0.00 0.00 75 1020.7
20260901041902 26 220 3.2 3.2 0.00 0.00 0.00 75 1020.4
20260901041357 26 220 3.2 3.2 0.00 0.00 0.00 75 1020.5
20260901040857 -17 0.0 0.0 0.00 0.00 0.00 1020.5
20260901040356 28 152 3.2 4.8 0.00 0.00 0.00 75 1020.4
20260901035855 28 152 3.2 4.8 0.00 0.00 0.00 75 1020.4
20260901035354 28 152 3.2 4.8 0.00 0.00 0.00 75 1020.5
20260901034853 28 152 3.2 4.8 0.00 0.00 0.00 75 1020.5
20260901034348 28 152 3.2 4.8 0.00 0.00 0.00 75 1020.5
20260901033843 28 152 3.2 4.8 0.00 0.00 0.00 75 1020.4
20260901033342 28 152 3.2 4.8 0.00 0.00 0.00 75 1020.5
20260901032841 28 152 3.2 4.8 0.00 0.00 0.00 75 1020.5
20260901032340 28 152 3.2 4.8 0.00 0.00 0.00 75 1020.4
20260901031836 28 152 3.2 4.8 0.00 0.00 0.00 75 1020.4
20260901031332 28 152 3.2 4.8 0.00 0.00 0.00 75 1020.2
20260901030831 28 152 3.2 4.8 0.00 0.00 0.00 75 1020.1
20260901030327 28 142 4.8 4.8 0.00 0.00 0.00 75 1020.2
20260901025826 28 150 3.2 4.8 0.00 0.00 0.00 75 1020.2
20260901025321 -17 0.0 0.0 0.00 0.00 0.00 1020.2
20260901024816 -17 0.0 0.0 0.00 0.00 0.00 1020.3
20260901024315 -17 0.0 0.0 0.00 0.00 0.00 1020.0
20260901023813 -17 0.0 0.0 0.00 0.00 0.00 1019.9
20260901023308 -17 0.0 0.0 0.00 0.00 0.00 1020.0
20260901022804 -17 0.0 0.0 0.00 0.00 0.00 1020.0
20260901022259 -17 0.0 0.0 0.00 0.00 0.00 1019.9
20260901021754 -17 0.0 0.0 0.00 0.00 0.00 1019.7
20260901021250 30 152 4.8 11.3 0.00 0.00 0.00 76 1019.9
20260901020745 30 152 4.8 11.3 0.00 0.00 0.00 76 1019.6
20260901020240 30 152 4.8 11.3 0.00 0.00 0.00 76 1019.6
20260901015734 30 152 4.8 11.3 0.00 0.00 0.00 76 1019.4
20260901015231 30 152 4.8 11.3 0.00 0.00 0.00 76 1019.7
20260901014730 30 152 4.8 11.3 0.00 0.00 0.00 76 1019.6
20260901014226 30 152 4.8 11.3 0.00 0.00 0.00 76 1019.4
20260901013721 30 152 4.8 11.3 0.00 0.00 0.00 76 1019.4
20260901013217 30 152 4.8 11.3 0.00 0.00 0.00 76 1019.3
20260901012712 30 152 4.8 11.3 0.00 0.00 0.00 76 1019.2
20260901012207 30 152 4.8 11.3 0.00 0.00 0.00 76 1019.1
20260901011703 30 152 4.8 14.5 0.00 0.00 0.00 76 1018.9
20260901011202 31 199 3.2 11.3 0.00 0.00 0.00 76 1018.9
20260901010656 31 199 3.2 11.3 0.00 0.00 0.00 76 1018.7
20260901010151 31 199 3.2 11.3 0.00 0.00 0.00 76 1018.7
20260901005650 31 199 3.2 11.3 0.00 0.00 0.00 76 1018.6
20260901005146 31 147 6.4 8.0 0.00 0.00 0.00 76 1018.8
20260901004645 31 152 11.3 11.3 0.00 0.00 0.00 76 1018.6
20260901004139 -17 0.0 0.0 0.00 0.00 0.00 1018.6
20260901003635 -17 0.0 0.0 0.00 0.00 0.00 1018.6
20260901003133 -17 0.0 0.0 0.00 0.00 0.00 1018.6
20260901002628 -17 0.0 0.0 0.00 0.00 0.00 1018.3
20260901002122 -17 0.0 0.0 0.00 0.00 0.00 1018.4
20260901001617 -17 0.0 0.0 0.00 0.00 0.00 1018.5
20260901001112 -17 0.0 0.0 0.00 0.00 0.00 1018.4
20260901000607 -17 0.0 0.0 0.00 0.00 0.00 1018.7
20260901000058 35 156 3.2 3.2 0.00 0.00 0.00 77 1018.4
20260831235551 35 156 3.2 3.2 0.00 0.00 0.00 77 1018.4
20260831235047 35 156 3.2 3.2 0.00 0.00 0.00 77 1018.5
20260831234540 35 156 3.2 3.2 0.00 0.00 0.00 77 1018.8
20260831234036 35 156 3.2 3.2 0.00 0.00 0.00 77 1018.3
20260831233531 35 156 3.2 3.2 0.00 0.00 0.00 77 1018.5
20260831233027 35 156 3.2 3.2 0.00 0.00 0.00 77 1018.4
20260831232522 35 156 3.2 3.2 0.00 0.00 0.00 77 1018.5
20260831232018 35 156 3.2 3.2 0.00 0.00 0.00 77 1018.3
20260831231514 35 156 3.2 3.2 0.00 0.00 0.00 77 1018.3
20260831231009 35 156 3.2 3.2 0.00 0.00 0.00 77 1018.3
20260831230505 35 156 3.2 3.2 0.00 0.00 0.00 77 1018.4
20260831225959 35 125 3.2 4.8 0.00 0.00 0.00 77 1018.7
20260831225455 35 120 4.8 4.8 0.00 0.00 0.00 77 1018.5
20260831224954 35 99 3.2 6.4 0.00 0.00 0.00 77 1018.6
20260831224449 35 109 6.4 8.0 0.00 0.00 0.00 77 1018.5
20260831223944 35 132 6.4 6.4 0.00 0.00 0.00 77 1018.6
20260831223439 35 135 4.8 6.4 0.00 0.00 0.00 77 1018.6
20260831222936 35 142 3.2 9.7 0.00 0.00 0.00 77 1018.9
20260831222431 35 111 9.7 9.7 0.00 0.00 0.00 77 1018.7
20260831221926 35 105 1.6 1.6 0.00 0.00 0.00 77 1018.8
20260831221422 35 128 3.2 4.8 0.00 0.00 0.00 77 1018.8
20260831220917 35 140 0.0 3.2 0.00 0.00 0.00 77 1018.7
20260831220412 35 140 0.0 3.2 0.00 0.00 0.00 77 1018.6
20260831215907 35 90 4.8 4.8 0.00 0.00 0.00 77 1018.9
20260831215403 35 144 4.8 4.8 0.00 0.00 0.00 77 1018.8
20260831214859 35 144 4.8 4.8 0.00 0.00 0.00 77 1018.8
20260831214356 35 144 4.8 4.8 0.00 0.00 0.00 77 1018.8
20260831213852 35 126 8.0 8.0 0.00 0.00 0.00 77 1018.9
20260831213348 35 121 3.2 6.4 0.00 0.00 0.00 77 1019.1
20260831212843 35 114 6.4 6.4 0.00 0.00 0.00 77 1019.1
20260831212340 35 150 3.2 4.8 0.00 0.00 0.00 77 1018.9
20260831211838 35 110 8.0 9.7 0.00 0.00 0.00 77 1019.1
20260831211334 35 86 4.8 4.8 0.00 0.00 0.00 77 1018.9
20260831210833 35 84 3.2 6.4 0.00 0.00 0.00 77 1018.9
20260831210329 34 98 6.4 9.7 0.00 0.00 0.00 77 1019.1
20260831205829 35 90 4.8 14.5 0.00 0.00 0.00 77 1019.3
20260831205325 35 105 1.6 3.2 0.00 0.00 0.00 77 1019.2
20260831204820 35 197 4.8 8.0 0.00 0.00 0.00 77 1019.5
20260831204319 36 165 3.2 4.8 0.00 0.00 0.00 77 1019.4
20260831203818 35 17 0.0 4.8 0.00 0.00 0.00 77 1019.5
20260831203313 35 243 4.8 11.3 0.00 0.00 0.00 77 1019.7
20260831202811 35 243 8.0 14.5 0.00 0.00 0.00 77 1019.6
20260831202306 36 194 1.6 8.0 0.00 0.00 0.00 77 1019.6
20260831201800 35 216 0.0 4.8 0.00 0.00 0.00 77 1019.8
20260831201259 35 180 1.6 8.0 0.00 0.00 0.00 77 1020.0
20260831200755 35 129 3.2 4.8 0.00 0.00 0.00 77 1019.8
20260831200250 35 126 3.2 8.0 0.00 0.00 0.00 77 1020.0
20260831195745 35 183 4.8 12.9 0.00 0.00 0.00 77 1020.0
20260831195241 35 0 3.2 3.2 0.00 0.00 0.00 77 1020.1
20260831194736 35 297 3.2 8.0 0.00 0.00 0.00 77 1020.2
20260831194232 35 255 4.8 6.4 0.00 0.00 0.00 77 1020.3
20260831193725 35 246 1.6 6.4 0.00 0.00 0.00 77 1020.3
20260831193221 33 246 4.8 8.0 0.00 0.00 0.00 77 1020.1
20260831192716 35 267 11.3 16.1 0.00 0.00 0.00 77 1020.4
20260831192211 34 240 8.0 16.1 0.00 0.00 0.00 77 1020.4
20260831191707 35 245 3.2 11.3 0.00 0.00 0.00 77 1020.4
20260831191203 34 274 8.0 9.7 0.00 0.00 0.00 77 1020.5
20260831190657 34 206 4.8 8.0 0.00 0.00 0.00 77 1020.7
20260831190157 34 203 8.0 11.3 0.00 0.00 0.00 77 1020.4
20260831185652 35 185 4.8 12.9 0.00 0.00 0.00 77 1020.4
20260831185148 33 197 9.7 16.1 0.00 0.00 0.00 77 1020.7
20260831184647 33 207 8.0 14.5 0.00 0.00 0.00 77 1020.8
20260831184143 34 219 6.4 14.5 0.00 0.00 0.00 77 1020.7
20260831183643 33 197 3.2 16.1 0.00 0.00 0.00 77 1020.8
20260831183142 33 237 6.4 9.7 0.00 0.00 0.00 77 1021.0
20260831182641 33 214 9.7 14.5 0.00 0.00 0.00 77 1021.0
20260831182137 33 246 4.8 14.5 0.00 0.00 0.00 77 1020.9
20260831181632 33 257 8.0 14.5 0.00 0.00 0.00 77 1021.2
20260831181131 33 199 6.4 14.5 0.00 0.00 0.00 77 1021.3
20260831180627 33 196 9.7 17.7 0.00 0.00 0.00 77 1021.2
20260831180122 33 197 4.8 9.7 0.00 0.00 0.00 77 1021.3
20260831175616 33 194 4.8 16.1 0.00 0.00 0.00 77 1021.3
20260831175114 33 218 9.7 20.9 0.00 0.00 0.00 77 1021.2
20260831174613 33 185 4.8 17.7 0.00 0.00 0.00 77 1021.4
20260831174108 32 201 6.4 19.3 0.00 0.00 0.00 76 1021.3
20260831173606 33 194 4.8 11.3 0.00 0.00 0.00 77 1021.3
20260831173103 32 259 3.2 16.1 0.00 0.00 0.00 77 1021.4
20260831172602 32 196 16.1 20.9 0.00 0.00 0.00 76 1021.2
20260831172057 32 191 8.0 17.7 0.00 0.00 0.00 76 1021.5
20260831171553 32 215 9.7 17.7 0.00 0.00 0.00 76 1021.5
20260831171050 32 275 3.2 16.1 0.00 0.00 0.00 76 1021.4
20260831170546 32 249 14.5 17.7 0.00 0.00 0.00 76 1021.5
20260831170044 32 200 14.5 20.9 0.00 0.00 0.00 76 1021.8
20260831165543 32 215 4.8 24.1 0.00 0.00 0.00 76 1021.7
20260831165040 32 334 3.2 16.1 0.00 0.00 0.00 76 1021.7
20260831164536 32 223 14.5 17.7 0.00 0.00 0.00 76 1022.2
20260831164031 31 210 3.2 19.3 0.00 0.00 0.00 76 1022.2
20260831163526 31 210 3.2 19.3 0.00 0.00 0.00 76 1022.0
20260831163021 31 210 3.2 19.3 0.00 0.00 0.00 76 1021.9
20260831162520 32 222 4.8 8.0 0.00 0.00 0.00 76 1021.8
20260831162018 31 223 6.4 12.9 0.00 0.00 0.00 76 1022.0
20260831161515 31 223 6.4 12.9 0.00 0.00 0.00 76 1021.9
20260831161011 30 248 8.0 12.9 0.00 0.00 0.00 76 1022.4
20260831160510 30 248 8.0 12.9 0.00 0.00 0.00 76 1022.0
20260831160006 30 248 8.0 12.9 0.00 0.00 0.00 76 1022.0
20260831155500 30 248 8.0 12.9 0.00 0.00 0.00 76 1021.9
20260831154955 30 248 8.0 12.9 0.00 0.00 0.00 76 1022.0
20260831154452 30 248 8.0 12.9 0.00 0.00 0.00 76 1022.0
20260831153950 30 248 8.0 12.9 0.00 0.00 0.00 76 1021.8
20260831153446 30 248 8.0 19.3 0.00 0.00 0.00 76 1022.0
20260831152943 30 213 6.4 17.7 0.00 0.00 0.00 76 1022.0
20260831152437 30 197 11.3 24.1 0.00 0.00 0.00 76 1022.2
20260831151933 30 190 3.2 14.5 0.00 0.00 0.00 76 1022.2
20260831151431 30 244 16.1 20.9 0.00 0.00 0.00 76 1022.0
20260831150927 30 249 4.8 19.3 0.00 0.00 0.00 76 1022.0
20260831150422 29 228 6.4 17.7 0.00 0.00 0.00 76 1021.9
20260831145922 29 150 3.2 22.5 0.00 0.00 0.00 76 1021.8
20260831145418 28 241 11.3 14.5 0.00 0.00 0.00 76 1022.0
20260831144914 28 226 11.3 17.7 0.00 0.00 0.00 75 1021.8
20260831144409 28 246 16.1 17.7 0.00 0.00 0.00 75 1021.8
20260831143904 28 216 8.0 14.5 0.00 0.00 0.00 75 1022.0
20260831143359 27 197 8.0 17.7 0.00 0.00 0.00 75 1021.9
20260831142854 27 208 3.2 9.7 0.00 0.00 0.00 75 1021.5
20260831142349 27 197 6.4 12.9 0.00 0.00 0.00 75 1021.7
20260831141844 27 249 6.4 12.9 0.00 0.00 0.00 75 1022.0
20260831141338 27 202 9.7 9.7 0.00 0.00 0.00 75 1021.8
20260831140834 26 197 4.8 8.0 0.00 0.00 0.00 75 1021.8
20260831140328 26 218 4.8 6.4 0.00 0.00 0.00 75 1021.8
20260831135826 26 202 4.8 6.4 0.00 0.00 0.00 75 1021.9
20260831135321 25 200 4.8 8.0 0.00 0.00 0.00 75 1021.8
20260831134817 25 148 0.0 6.4 0.00 0.00 0.00 75 1021.7
20260831134314 25 208 8.0 8.0 0.00 0.00 0.00 75 1021.9
20260831133812 25 203 4.8 6.4 0.00 0.00 0.00 75 1021.9
20260831133307 24 182 4.8 4.8 0.00 0.00 0.00 75 1021.9
20260831132802 24 217 3.2 6.4 0.00 0.00 0.00 74 1021.8
20260831132257 24 199 0.0 6.4 0.00 0.00 0.00 74 1022.0
20260831131756 24 186 0.0 4.8 0.00 0.00 0.00 75 1021.7
20260831131253 24 163 0.0 3.2 0.00 0.00 0.00 74 1021.6
20260831130748 23 208 4.8 4.8 0.00 0.00 0.00 74 1021.6
20260831130243 23 200 1.6 3.2 0.00 0.00 0.00 74 1021.6
20260831125742 23 208 0.0 4.8 0.00 0.00 0.00 74 1021.5
20260831125238 23 173 0.0 3.2 0.00 0.00 0.00 74 1021.5
20260831124732 22 157 0.0 3.2 0.00 0.00 0.00 74 1021.2
20260831124229 22 160 0.0 4.8 0.00 0.00 0.00 74 1021.4
20260831123728 21 192 1.6 3.2 0.00 0.00 0.00 74 1021.2
20260831123227 20 206 0.0 4.8 0.00 0.00 0.00 74 1021.0
20260831122721 20 209 0.0 4.8 0.00 0.00 0.00 74 1021.0
20260831122218 20 220 3.2 3.2 0.00 0.00 0.00 74 1020.7
20260831121717 20 221 3.2 3.2 0.00 0.00 0.00 74 1021.0
20260831121214 20 200 1.6 1.6 0.00 0.00 0.00 74 1020.7
20260831120709 -17 0.0 0.0 0.00 0.00 0.00 1020.7
20260831120203 -17 0.0 0.0 0.00 0.00 0.00 1020.6
20260831115659 -17 0.0 0.0 0.00 0.00 0.00 1020.7
20260831115155 -17 0.0 0.0 0.00 0.00 0.00 1020.4
20260831114654 -17 0.0 0.0 0.00 0.00 0.00 1020.5
20260831114148 -17 0.0 0.0 0.00 0.00 0.00 1020.6
20260831113648 -17 0.0 0.0 0.00 0.00 0.00 1020.5
20260831113143 -17 0.0 0.0 0.00 0.00 0.00 1020.1
20260831112642 -17 0.0 0.0 0.00 0.00 0.00 1020.3
20260831112138 -17 0.0 0.0 0.00 0.00 0.00 1020.2
20260831111634 -17 0.0 0.0 0.00 0.00 0.00 1020.6
20260831111129 -17 0.0 0.0 0.00 0.00 0.00 1020.2
20260831110625 -17 0.0 0.0 0.00 0.00 0.00 1020.2
20260831110120 -17 0.0 0.0 0.00 0.00 0.00 1020.2
20260831105619 -17 0.0 0.0 0.00 0.00 0.00 1020.2
20260831105114 -17 0.0 0.0 0.00 0.00 0.00 1020.3
20260831104610 -17 0.0 0.0 0.00 0.00 0.00 1020.2
20260831104106 -17 0.0 0.0 0.00 0.00 0.00 1020.4
20260831103601 -17 0.0 0.0 0.00 0.00 0.00 1020.2
20260831103056 -17 0.0 0.0 0.00 0.00 0.00 1020.3
20260831102550 -17 0.0 0.0 0.00 0.00 0.00 1020.3
20260831102046 -17 0.0 0.0 0.00 0.00 0.00 1020.1
20260831101540 -17 0.0 0.0 0.00 0.00 0.00 1020.2
20260831101037 -17 0.0 0.0 0.00 0.00 0.00 1020.3
20260831100532 -17 0.0 0.0 0.00 0.00 0.00 1020.3
20260831100028 -17 0.0 0.0 0.00 0.00 0.00 1020.5
20260831095526 -17 0.0 0.0 0.00 0.00 0.00 1020.2
20260831095021 -17 0.0 0.0 0.00 0.00 0.00 1020.1
20260831094518 -17 0.0 0.0 0.00 0.00 0.00 1020.2
20260831094013 -17 0.0 0.0 0.00 0.00 0.00 1020.2
20260831093513 -17 0.0 0.0 0.00 0.00 0.00 1020.1
20260831093010 -17 0.0 0.0 0.00 0.00 0.00 1020.2
20260831092505 -17 0.0 0.0 0.00 0.00 0.00 1020.1
20260831092001 -17 0.0 0.0 0.00 0.00 0.00 1019.9
20260831091455 -17 0.0 0.0 0.00 0.00 0.00 1020.1
20260831090950 -17 0.0 0.0 0.00 0.00 0.00 1019.9
20260831090447 -17 0.0 0.0 0.00 0.00 0.00 1020.0
20260831085942 -17 0.0 0.0 0.00 0.00 0.00 1019.9
20260831085438 -17 0.0 0.0 0.00 0.00 0.00 1020.2
20260831084937 -17 0.0 0.0 0.00 0.00 0.00 1019.8
20260831084433 -17 0.0 0.0 0.00 0.00 0.00 1019.6
20260831083930 -17 0.0 0.0 0.00 0.00 0.00 1019.7
20260831083425 -17 0.0 0.0 0.00 0.00 0.00 1019.6
20260831082924 -17 0.0 0.0 0.00 0.00 0.00 1019.8
20260831082423 -17 0.0 0.0 0.00 0.00 0.00 1019.8
20260831081919 -17 0.0 0.0 0.00 0.00 0.00 1019.7
20260831081415 -17 0.0 0.0 0.00 0.00 0.00 1019.8
20260831080910 -17 0.0 0.0 0.00 0.00 0.00 1019.7
20260831080405 -17 0.0 0.0 0.00 0.00 0.00 1019.4
20260831075901 -17 0.0 0.0 0.00 0.00 0.00 1019.6
20260831075356 -17 0.0 0.0 0.00 0.00 0.00 1019.7
20260831074851 -17 0.0 0.0 0.00 0.00 0.00 1019.4
20260831074350 -17 0.0 0.0 0.00 0.00 0.00 1019.6
20260831073846 -17 0.0 0.0 0.00 0.00 0.00 1019.6
20260831073344 -17 0.0 0.0 0.00 0.00 0.00 1019.8
20260831072840 -17 0.0 0.0 0.00 0.00 0.00 1019.7
20260831072335 -17 0.0 0.0 0.00 0.00 0.00 1019.7
20260831071832 -17 0.0 0.0 0.00 0.00 0.00 1019.8
20260831071330 -17 0.0 0.0 0.00 0.00 0.00 1019.7
20260831070826 -17 0.0 0.0 0.00 0.00 0.00 1020.0
20260831070324 -17 0.0 0.0 0.00 0.00 0.00 1019.7